Location: Atherton
(17.2661°S, 145.4859°E)
Time: 23:28:25
(UTC+10:00)

Transit 2A - Pass Details

Date: 24 June 2025
Orbit: 598 x 948 km, 66.7° (Epoch: 19 July)

Event Time Altitude Azimuth Distance (km) Brightness Sun altitude
Rises 08:31:43 0° 16° (NNE) 3,351 10.1 20.9°
Reaches altitude 10° 08:34:54 10° 35° (NE) 2,489 10.2 21.5°
Maximum altitude 08:38:39 18° 76° (ENE) 2,065 9.9 22.3°
Drops below altitude 10° 08:42:33 10° 116° (ESE) 2,621 9.2 23.0°
Sets 08:46:00 0° 133° (SE) 3,605 9.6 23.7°
